Flag Weather past 2 weeks in Plauen, Saxony, Germany

Now
32 °F

Fog.


Feels Like: 26 °F
Forecast: 28 / 41 °F
Wind: 6 mph from Southeast

Location: Hof

Current Time: Nov 28, 2014 at 4:17:40 AM

Latest Report: Nov 28, 2014 at 3:00 AM


Visibility: 3 mi

Pressure: 29.96 "Hg

Humidity: 96%

Dew point: 31 °F

Location of PlauenLocation

Historic Weather in Plauen — Graph

°F

Plauen temperature yesterday

Maximum temperature yesterday: 34 °F (at 1:00 PM)
Minimum temperature yesterday: 33 °F (at 8:00 AM)
Average temperature yesterday: 33 °F

Past Weeks' High & Low Weather Summary

 TemperatureHumidityPressure
High52 °F (Nov 14, 2:00 PM)100% (Nov 13, 3:00 AM)30.39 "Hg (Nov 13, 3:00 AM)
Low31 °F (Nov 23, 7:00 AM)68% (Nov 25, 2:00 PM)29.47 "Hg (Nov 16, 5:00 AM)
Average39 °F93%30.03 "Hg
* Reported Nov 13 3:00 AM — Nov 28 3:00 AM, Plauen, Weather by CustomWeather, © 2014

Note: Actual official high and low records may vary slightly from our data, if they occured in-between our weather recording intervals... More about our weather records

Advertising

Plauen weather history for previous 24 hours

 ConditionsComfort  
Time TempWeatherWind HumidityBarometerVisibility
3:00 AM
Nov 28
32 °FFog.6 mph96%29.96 "Hg2 mi
2:00 AM32 °FFog.7 mph95%29.96 "Hg3 mi
1:00 AM32 °FFog.6 mph94%29.96 "Hg3 mi
12:00 AM32 °FFog.5 mph93%29.96 "Hg3 mi
11:00 PM
Nov 27
33 °FFog.6 mph93%29.96 "Hg3 mi
10:00 PM33 °FFog.5 mph92%29.95 "Hg3 mi
9:00 PM33 °FFog.6 mph92%29.94 "Hg3 mi
8:00 PM33 °FFog.6 mph92%29.93 "Hg3 mi
7:00 PM33 °FFog.7 mph94%29.93 "Hg3 mi
6:00 PM33 °FFog.6 mph93%29.92 "Hg3 mi
5:00 PM33 °FFog.6 mph93%29.93 "Hg3 mi
4:00 PM33 °FFog.6 mph92%29.92 "Hg3 mi
3:00 PM34 °FFog.6 mph90%29.91 "Hg4 mi
2:00 PM34 °FFog.6 mph85%29.92 "Hg4 mi
1:00 PM34 °FFog.5 mph85%29.93 "Hg4 mi
12:00 PM34 °FFog.5 mph84%29.94 "Hg4 mi
11:00 AM33 °FFog.5 mph87%29.96 "Hg4 mi
9:00 AM33 °FFog.6 mph88%29.97 "Hg4 mi
8:00 AM33 °FFog.7 mph86%29.97 "Hg4 mi
7:00 AM33 °FFog.5 mph85%29.97 "Hg4 mi
6:00 AM33 °FFog.5 mph85%29.97 "Hg4 mi
5:00 AM33 °FFog.6 mph85%29.98 "Hg4 mi
Weather by CustomWeather, © 2014

See weather overviewHow to use our weather pages